Time,TemperatureF,DewpointF,PressureIn,WindDirection,WindDirectionDegrees,WindSpeedMPH,WindSpeedGustMPH,Humidity,HourlyPrecipIn,Conditions,Clouds,dailyrainin,SoftwareType,DateUTC
2013-10-07 00:01:00,70.6,66.2,29.92,ENE,68,4.0,4.0,86,0.00,,,0.00,Wunderground v.1.15,2013-10-07 04:01:00,
2013-10-07 00:02:00,70.5,66.1,29.92,ENE,68,3.0,4.0,86,0.00,,,0.00,Wunderground v.1.15,2013-10-07 04:02:00,
2013-10-07 00:03:00,70.5,66.1,29.92,East,98,3.0,4.0,86,0.00,,,0.00,Wunderground v.1.15,2013-10-07 04:03:00,
2013-10-07 00:05:00,70.5,66.1,29.92,ENE,70,3.0,5.0,86,0.00,,,0.00,Wunderground v.1.15,2013-10-07 04:05:00,
2013-10-07 00:10:00,70.4,66.0,29.92,East,83,4.0,10.0,86,0.00,,,0.00,Wunderground v.1.15,2013-10-07 04:10:00,
2013-10-07 00:13:00,70.3,65.9,29.92,ESE,103,4.0,5.0,86,0.00,,,0.00,Wunderground v.1.15,2013-10-07 04:13:00,
2013-10-07 00:19:00,70.2,66.1,29.92,SSW,200,4.0,11.0,87,0.00,,,0.00,Wunderground v.1.15,2013-10-07 04:19:00,
2013-10-07 00:24:00,70.1,66.0,29.92,ENE,71,3.0,4.0,87,0.00,,,0.00,Wunderground v.1.15,2013-10-07 04:24:00,
2013-10-07 00:31:00,70.0,66.0,29.92,SE,136,4.0,4.0,87,0.00,,,0.00,Wunderground v.1.15,2013-10-07 04:31:00,
2013-10-07 00:36:00,69.8,65.8,29.92,NE,45,4.0,6.0,87,0.00,,,0.00,Wunderground v.1.15,2013-10-07 04:36:00,
2013-10-07 00:41:00,69.7,66.0,29.92,South,170,3.0,3.0,88,0.00,,,0.00,Wunderground v.1.15,2013-10-07 04:41:00,
2013-10-07 00:47:00,69.7,66.0,29.92,NE,52,4.0,8.0,88,0.00,,,0.00,Wunderground v.1.15,2013-10-07 04:47:00,
2013-10-07 00:53:00,69.8,66.1,29.92,ENE,72,4.0,9.0,88,0.00,,,0.00,Wunderground v.1.15,2013-10-07 04:53:00,
2013-10-07 00:59:00,69.8,66.1,29.91,ESE,117,4.0,9.0,88,0.00,,,0.00,Wunderground v.1.15,2013-10-07 04:59:00,
2013-10-07 01:05:00,69.7,66.0,29.91,East,96,3.0,5.0,88,0.00,,,0.00,Wunderground v.1.15,2013-10-07 05:05:00,
2013-10-07 01:10:00,69.6,65.9,29.91,East,92,3.0,5.0,88,0.00,,,0.00,Wunderground v.1.15,2013-10-07 05:10:00,
2013-10-07 01:15:00,69.6,66.2,29.91,NE,56,3.0,8.0,89,0.00,,,0.00,Wunderground v.1.15,2013-10-07 05:15:00,
2013-10-07 01:21:00,69.5,66.1,29.91,SSW,205,3.0,4.0,89,0.00,,,0.00,Wunderground v.1.15,2013-10-07 05:21:00,
2013-10-07 01:27:00,69.4,66.0,29.91,ESE,105,3.0,4.0,89,0.00,,,0.00,Wunderground v.1.15,2013-10-07 05:27:00,
2013-10-07 01:32:00,69.4,66.0,29.91,South,180,3.0,3.0,89,0.00,,,0.00,Wunderground v.1.15,2013-10-07 05:32:00,
2013-10-07 01:38:00,69.6,66.2,29.91,East,86,3.0,5.0,89,0.00,,,0.00,Wunderground v.1.15,2013-10-07 05:38:00,
2013-10-07 01:44:00,69.6,66.2,29.91,ENE,68,3.0,5.0,89,0.00,,,0.00,Wunderground v.1.15,2013-10-07 05:44:00,
2013-10-07 01:50:00,69.7,66.6,29.91,East,84,3.0,5.0,90,0.00,,,0.00,Wunderground v.1.15,2013-10-07 05:50:00,
2013-10-07 01:56:00,69.7,66.6,29.91,East,81,3.0,5.0,90,0.00,,,0.00,Wunderground v.1.15,2013-10-07 05:56:00,
2013-10-07 02:02:00,69.7,66.6,29.90,ENE,67,4.0,4.0,90,0.00,,,0.00,Wunderground v.1.15,2013-10-07 06:02:00,
2013-10-07 02:07:00,69.7,66.6,29.90,East,94,4.0,4.0,90,0.00,,,0.00,Wunderground v.1.15,2013-10-07 06:07:00,
2013-10-07 02:13:00,69.7,66.6,29.90,ENE,74,4.0,7.0,90,0.00,,,0.00,Wunderground v.1.15,2013-10-07 06:13:00,
2013-10-07 02:19:00,69.8,66.7,29.90,SE,146,4.0,7.0,90,0.00,,,0.00,Wunderground v.1.15,2013-10-07 06:19:00,
2013-10-07 02:24:00,69.8,66.7,29.90,ESE,110,4.0,6.0,90,0.00,,,0.00,Wunderground v.1.15,2013-10-07 06:24:00,
2013-10-07 02:29:00,69.8,66.7,29.90,ENE,58,4.0,7.0,90,0.00,,,0.00,Wunderground v.1.15,2013-10-07 06:29:00,
2013-10-07 02:35:00,69.8,66.7,29.89,South,174,4.0,5.0,90,0.00,,,0.00,Wunderground v.1.15,2013-10-07 06:35:00,
2013-10-07 02:40:00,69.8,66.7,29.89,ENE,77,3.0,8.0,90,0.00,,,0.00,Wunderground v.1.15,2013-10-07 06:40:00,
2013-10-07 02:45:00,69.9,66.8,29.89,NNE,22,3.0,4.0,90,0.00,,,0.00,Wunderground v.1.15,2013-10-07 06:45:00,
2013-10-07 02:51:00,69.9,66.8,29.89,NE,41,4.0,4.0,90,0.00,,,0.00,Wunderground v.1.15,2013-10-07 06:51:00,
2013-10-07 02:57:00,69.9,66.8,29.89,NE,49,3.0,5.0,90,0.00,,,0.00,Wunderground v.1.15,2013-10-07 06:57:00,
2013-10-07 03:02:00,70.0,66.9,29.89,NE,49,3.0,7.0,90,0.00,,,0.00,Wunderground v.1.15,2013-10-07 07:02:00,
2013-10-07 03:08:00,70.1,67.0,29.88,ESE,111,3.0,7.0,90,0.00,,,0.00,Wunderground v.1.15,2013-10-07 07:08:00,
2013-10-07 03:14:00,70.1,67.0,29.88,ENE,72,3.0,4.0,90,0.00,,,0.00,Wunderground v.1.15,2013-10-07 07:14:00,
2013-10-07 03:19:00,70.1,67.3,29.88,NNE,30,3.0,4.0,91,0.00,,,0.00,Wunderground v.1.15,2013-10-07 07:19:00,
2013-10-07 03:25:00,70.1,67.3,29.87,East,81,3.0,4.0,91,0.00,,,0.00,Wunderground v.1.15,2013-10-07 07:25:00,
2013-10-07 03:30:00,70.1,67.3,29.87,NE,51,4.0,8.0,91,0.00,,,0.00,Wunderground v.1.15,2013-10-07 07:30:00,
2013-10-07 03:36:00,70.1,67.3,29.86,ESE,106,5.0,8.0,91,0.00,,,0.00,Wunderground v.1.15,2013-10-07 07:36:00,
2013-10-07 03:42:00,70.1,67.3,29.86,ESE,108,4.0,8.0,91,0.00,,,0.00,Wunderground v.1.15,2013-10-07 07:42:00,
2013-10-07 03:48:00,70.0,67.3,29.86,ENE,65,4.0,8.0,91,0.00,,,0.00,Wunderground v.1.15,2013-10-07 07:48:00,
2013-10-07 03:53:00,70.0,67.3,29.86,ESE,108,3.0,7.0,91,0.00,,,0.00,Wunderground v.1.15,2013-10-07 07:53:00,
2013-10-07 03:59:00,69.9,67.2,29.86,ESE,120,3.0,7.0,91,0.00,,,0.00,Wunderground v.1.15,2013-10-07 07:59:00,
2013-10-07 04:05:00,69.9,67.2,29.86,SE,134,4.0,6.0,91,0.00,,,0.00,Wunderground v.1.15,2013-10-07 08:05:00,
2013-10-07 04:11:00,69.9,67.2,29.85,NE,45,4.0,5.0,91,0.00,,,0.00,Wunderground v.1.15,2013-10-07 08:11:00,
2013-10-07 04:17:00,69.9,67.2,29.85,East,94,4.0,7.0,91,0.00,,,0.00,Wunderground v.1.15,2013-10-07 08:17:00,
2013-10-07 04:22:00,69.9,67.5,29.85,ESE,110,4.0,8.0,92,0.00,,,0.00,Wunderground v.1.15,2013-10-07 08:22:00,
2013-10-07 04:28:00,69.9,67.5,29.85,East,84,5.0,10.0,92,0.00,,,0.00,Wunderground v.1.15,2013-10-07 08:28:00,
2013-10-07 04:34:00,70.0,67.3,29.85,East,86,4.0,6.0,91,0.00,,,0.00,Wunderground v.1.15,2013-10-07 08:34:00,
2013-10-07 04:40:00,70.0,67.3,29.84,ESE,108,4.0,7.0,91,0.00,,,0.00,Wunderground v.1.15,2013-10-07 08:40:00,
2013-10-07 04:46:00,70.0,67.3,29.85,SE,146,4.0,7.0,91,0.00,,,0.00,Wunderground v.1.15,2013-10-07 08:46:00,
2013-10-07 04:51:00,70.0,67.3,29.85,ESE,105,3.0,3.0,91,0.00,,,0.00,Wunderground v.1.15,2013-10-07 08:51:00,
2013-10-07 04:57:00,70.0,67.3,29.84,SE,132,4.0,4.0,91,0.00,,,0.00,Wunderground v.1.15,2013-10-07 08:57:00,
2013-10-07 05:03:00,70.0,67.3,29.85,ESE,105,3.0,6.0,91,0.00,,,0.00,Wunderground v.1.15,2013-10-07 09:03:00,
2013-10-07 05:08:00,70.0,67.3,29.85,WNW,301,3.0,6.0,91,0.00,,,0.00,Wunderground v.1.15,2013-10-07 09:08:00,
2013-10-07 05:14:00,70.0,67.3,29.84,East,101,4.0,4.0,91,0.00,,,0.00,Wunderground v.1.15,2013-10-07 09:14:00,
2013-10-07 05:20:00,70.0,67.3,29.84,NE,39,4.0,11.0,91,0.00,,,0.00,Wunderground v.1.15,2013-10-07 09:20:00,
2013-10-07 05:26:00,70.0,67.3,29.84,East,93,5.0,5.0,91,0.00,,,0.00,Wunderground v.1.15,2013-10-07 09:26:00,
2013-10-07 05:32:00,70.0,67.3,29.84,ESE,105,5.0,5.0,91,0.00,,,0.00,Wunderground v.1.15,2013-10-07 09:32:00,
2013-10-07 05:38:00,70.0,67.3,29.84,ESE,110,4.0,8.0,91,0.00,,,0.00,Wunderground v.1.15,2013-10-07 09:38:00,
2013-10-07 05:44:00,70.1,67.3,29.85,ESE,109,4.0,6.0,91,0.00,,,0.00,Wunderground v.1.15,2013-10-07 09:44:00,
2013-10-07 05:49:00,70.0,67.3,29.84,East,96,5.0,6.0,91,0.00,,,0.00,Wunderground v.1.15,2013-10-07 09:49:00,
2013-10-07 05:55:00,70.0,67.6,29.84,ENE,77,4.0,7.0,92,0.00,,,0.00,Wunderground v.1.15,2013-10-07 09:55:00,
2013-10-07 06:01:00,70.0,67.6,29.84,ENE,62,4.0,4.0,92,0.00,,,0.00,Wunderground v.1.15,2013-10-07 10:01:00,
2013-10-07 06:06:00,69.9,67.5,29.84,ENE,63,4.0,7.0,92,0.00,,,0.00,Wunderground v.1.15,2013-10-07 10:06:00,
2013-10-07 06:12:00,69.9,67.5,29.83,SE,125,4.0,4.0,92,0.00,,,0.00,Wunderground v.1.15,2013-10-07 10:12:00,
2013-10-07 06:18:00,69.8,67.4,29.83,East,96,3.0,5.0,92,0.00,,,0.00,Wunderground v.1.15,2013-10-07 10:18:00,
2013-10-07 06:23:00,69.8,67.4,29.83,ESE,102,3.0,5.0,92,0.00,,,0.00,Wunderground v.1.15,2013-10-07 10:23:00,
2013-10-07 06:29:00,69.8,67.4,29.83,ESE,105,3.0,7.0,92,0.00,,,0.00,Wunderground v.1.15,2013-10-07 10:29:00,
2013-10-07 06:35:00,69.7,67.3,29.83,ESE,104,3.0,3.0,92,0.00,,,0.00,Wunderground v.1.15,2013-10-07 10:35:00,
2013-10-07 06:41:00,69.8,67.4,29.83,East,83,4.0,4.0,92,0.00,,,0.00,Wunderground v.1.15,2013-10-07 10:41:00,
2013-10-07 06:47:00,69.8,67.4,29.83,ENE,60,3.0,7.0,92,0.00,,,0.00,Wunderground v.1.15,2013-10-07 10:47:00,
2013-10-07 06:52:00,69.8,67.4,29.83,East,98,4.0,4.0,92,0.00,,,0.00,Wunderground v.1.15,2013-10-07 10:52:00,
2013-10-07 06:58:00,69.8,67.4,29.82,East,88,4.0,8.0,92,0.00,,,0.00,Wunderground v.1.15,2013-10-07 10:58:00,
2013-10-07 07:04:00,69.9,67.5,29.82,ENE,60,4.0,5.0,92,0.00,,,0.00,Wunderground v.1.15,2013-10-07 11:04:00,
2013-10-07 07:09:00,69.9,67.5,29.82,ENE,70,4.0,5.0,92,0.00,,,0.00,Wunderground v.1.15,2013-10-07 11:09:00,
2013-10-07 07:14:00,69.9,67.5,29.82,NE,47,4.0,5.0,92,0.00,,,0.00,Wunderground v.1.15,2013-10-07 11:14:00,
2013-10-07 07:20:00,69.8,67.4,29.82,SSE,166,4.0,5.0,92,0.00,,,0.00,Wunderground v.1.15,2013-10-07 11:20:00,
2013-10-07 07:25:00,69.6,67.5,29.82,ENE,75,3.0,7.0,93,0.00,,,0.00,Wunderground v.1.15,2013-10-07 11:25:00,
2013-10-07 07:30:00,69.5,67.4,29.81,East,98,4.0,7.0,93,0.00,,,0.00,Wunderground v.1.15,2013-10-07 11:30:00,
2013-10-07 07:36:00,69.5,67.4,29.81,ENE,65,4.0,4.0,93,0.00,,,0.00,Wunderground v.1.15,2013-10-07 11:36:00,
2013-10-07 07:42:00,69.4,67.3,29.81,East,80,3.0,4.0,93,0.00,,,0.00,Wunderground v.1.15,2013-10-07 11:42:00,
2013-10-07 07:48:00,69.4,67.3,29.81,NE,41,3.0,6.0,93,0.00,,,0.00,Wunderground v.1.15,2013-10-07 11:48:00,
2013-10-07 07:54:00,69.5,67.7,29.80,East,94,4.0,10.0,94,0.00,,,0.00,Wunderground v.1.15,2013-10-07 11:54:00,
2013-10-07 07:59:00,69.5,67.4,29.80,East,100,3.0,10.0,93,0.00,,,0.00,Wunderground v.1.15,2013-10-07 11:59:00,
2013-10-07 08:04:00,69.6,67.5,29.80,East,81,3.0,4.0,93,0.00,,,0.00,Wunderground v.1.15,2013-10-07 12:04:00,
2013-10-07 08:10:00,69.6,67.5,29.80,SSW,192,3.0,10.0,93,0.00,,,0.00,Wunderground v.1.15,2013-10-07 12:10:00,
2013-10-07 08:15:00,69.7,67.6,29.80,ENE,61,3.0,4.0,93,0.00,,,0.00,Wunderground v.1.15,2013-10-07 12:15:00,
2013-10-07 08:21:00,69.8,67.7,29.80,ESE,114,3.0,3.0,93,0.00,,,0.00,Wunderground v.1.15,2013-10-07 12:21:00,
2013-10-07 08:26:00,69.9,67.8,29.80,East,100,3.0,9.0,93,0.00,,,0.00,Wunderground v.1.15,2013-10-07 12:26:00,
2013-10-07 08:31:00,70.0,67.9,29.80,East,86,3.0,6.0,93,0.00,,,0.00,Wunderground v.1.15,2013-10-07 12:31:00,
2013-10-07 08:37:00,70.1,68.0,29.80,ENE,60,3.0,6.0,93,0.00,,,0.00,Wunderground v.1.15,2013-10-07 12:37:00,
2013-10-07 08:43:00,70.2,68.1,29.80,ESE,104,3.0,7.0,93,0.00,,,0.00,Wunderground v.1.15,2013-10-07 12:43:00,
2013-10-07 08:48:00,70.3,68.2,29.79,ESE,114,3.0,7.0,93,0.00,,,0.00,Wunderground v.1.15,2013-10-07 12:48:00,
2013-10-07 08:53:00,70.5,68.4,29.79,SSE,148,4.0,4.0,93,0.00,,,0.00,Wunderground v.1.15,2013-10-07 12:53:00,
2013-10-07 08:59:00,70.6,68.5,29.79,ENE,64,4.0,6.0,93,0.00,,,0.00,Wunderground v.1.15,2013-10-07 12:59:00,
2013-10-07 09:04:00,70.7,68.6,29.79,ESE,102,3.0,4.0,93,0.00,,,0.00,Wunderground v.1.15,2013-10-07 13:04:00,
2013-10-07 09:10:00,70.6,68.5,29.78,ESE,108,4.0,6.0,93,0.00,,,0.00,Wunderground v.1.15,2013-10-07 13:10:00,
2013-10-07 09:16:00,70.6,68.5,29.78,ESE,107,3.0,7.0,93,0.00,,,0.00,Wunderground v.1.15,2013-10-07 13:16:00,
2013-10-07 09:21:00,70.5,68.4,29.78,NE,45,3.0,3.0,93,0.00,,,0.00,Wunderground v.1.15,2013-10-07 13:21:00,
2013-10-07 09:26:00,70.6,68.5,29.78,East,84,4.0,9.0,93,0.00,,,0.00,Wunderground v.1.15,2013-10-07 13:26:00,
2013-10-07 09:32:00,70.7,68.6,29.78,North,5,5.0,5.0,93,0.00,,,0.00,Wunderground v.1.15,2013-10-07 13:32:00,
2013-10-07 09:37:00,70.7,68.6,29.77,NE,53,4.0,5.0,93,0.00,,,0.00,Wunderground v.1.15,2013-10-07 13:37:00,
2013-10-07 09:42:00,70.8,69.0,29.77,ESE,120,4.0,5.0,94,0.00,,,0.01,Wunderground v.1.15,2013-10-07 13:42:00,
2013-10-07 09:48:00,70.9,69.1,29.77,SE,132,4.0,8.0,94,0.00,,,0.01,Wunderground v.1.15,2013-10-07 13:48:00,
2013-10-07 09:53:00,71.0,68.9,29.77,SE,125,4.0,6.0,93,0.00,,,0.01,Wunderground v.1.15,2013-10-07 13:53:00,
2013-10-07 09:58:00,71.3,69.2,29.77,ENE,77,5.0,15.0,93,0.00,,,0.01,Wunderground v.1.15,2013-10-07 13:58:00,
2013-10-07 10:03:00,71.6,69.5,29.76,ENE,62,5.0,5.0,93,0.00,,,0.01,Wunderground v.1.15,2013-10-07 14:03:00,
2013-10-07 10:09:00,72.0,69.5,29.76,East,95,5.0,10.0,92,0.00,,,0.01,Wunderground v.1.15,2013-10-07 14:09:00,
2013-10-07 10:14:00,72.6,70.1,29.75,SSW,193,5.0,9.0,92,0.00,,,0.01,Wunderground v.1.15,2013-10-07 14:14:00,
2013-10-07 10:20:00,72.9,69.8,29.75,ESE,106,5.0,9.0,90,0.00,,,0.01,Wunderground v.1.15,2013-10-07 14:20:00,
2013-10-07 10:26:00,72.7,69.6,29.75,NE,35,6.0,10.0,90,0.00,,,0.01,Wunderground v.1.15,2013-10-07 14:26:00,
2013-10-07 10:32:00,72.5,69.4,29.75,East,91,5.0,5.0,90,0.00,,,0.01,Wunderground v.1.15,2013-10-07 14:32:00,
2013-10-07 10:38:00,72.3,69.2,29.75,ESE,114,5.0,9.0,90,0.00,,,0.01,Wunderground v.1.15,2013-10-07 14:38:00,
2013-10-07 10:43:00,72.1,69.3,29.74,SE,133,5.0,5.0,91,0.00,,,0.01,Wunderground v.1.15,2013-10-07 14:43:00,
2013-10-07 10:49:00,71.6,69.2,29.73,SSE,167,5.0,10.0,92,0.24,,,0.07,Wunderground v.1.15,2013-10-07 14:49:00,
2013-10-07 10:54:00,71.3,69.5,29.73,ENE,65,6.0,8.0,94,0.12,,,0.08,Wunderground v.1.15,2013-10-07 14:54:00,
2013-10-07 11:01:00,71.2,69.4,29.73,SSE,150,5.0,5.0,94,0.05,,,0.08,Wunderground v.1.15,2013-10-07 15:01:00,
2013-10-07 11:06:00,71.3,69.8,29.73,SE,125,6.0,8.0,95,0.04,,,0.09,Wunderground v.1.15,2013-10-07 15:06:00,
2013-10-07 11:12:00,71.6,70.1,29.73,South,169,8.0,10.0,95,0.04,,,0.09,Wunderground v.1.15,2013-10-07 15:12:00,
2013-10-07 11:18:00,71.8,70.0,29.73,South,176,7.0,14.0,94,0.04,,,0.09,Wunderground v.1.15,2013-10-07 15:18:00,
2013-10-07 11:24:00,71.8,70.0,29.73,East,94,6.0,7.0,94,0.00,,,0.09,Wunderground v.1.15,2013-10-07 15:24:00,
2013-10-07 11:29:00,71.8,70.0,29.74,NNE,33,6.0,9.0,94,0.00,,,0.10,Wunderground v.1.15,2013-10-07 15:29:00,
2013-10-07 11:35:00,72.0,70.2,29.74,East,81,7.0,11.0,94,0.00,,,0.10,Wunderground v.1.15,2013-10-07 15:35:00,
2013-10-07 11:40:00,72.3,70.2,29.75,SSW,197,8.0,11.0,93,0.00,,,0.10,Wunderground v.1.15,2013-10-07 15:40:00,
2013-10-07 11:45:00,72.4,70.3,29.76,SE,145,6.0,11.0,93,0.00,,,0.10,Wunderground v.1.15,2013-10-07 15:45:00,
2013-10-07 11:50:00,72.1,69.6,29.76,WSW,257,3.0,11.0,92,0.00,,,0.10,Wunderground v.1.15,2013-10-07 15:50:00,
2013-10-07 11:56:00,70.2,66.5,29.76,ENE,77,3.0,8.0,88,0.00,,,0.11,Wunderground v.1.15,2013-10-07 15:56:00,
2013-10-07 12:02:00,68.9,65.5,29.76,SSE,155,3.0,4.0,89,0.09,,,0.12,Wunderground v.1.15,2013-10-07 16:02:00,
2013-10-07 12:08:00,68.1,65.4,29.75,ESE,108,3.0,5.0,91,1.11,,,0.17,Wunderground v.1.15,2013-10-07 16:08:00,
2013-10-07 12:14:00,67.6,65.2,29.74,SW,227,2.0,4.0,92,0.13,,,0.19,Wunderground v.1.15,2013-10-07 16:14:00,
2013-10-07 12:20:00,67.3,65.2,29.74,SW,226,2.0,4.0,93,0.65,,,0.22,Wunderground v.1.15,2013-10-07 16:20:00,
2013-10-07 12:26:00,67.1,65.3,29.77,South,183,2.0,4.0,94,0.96,,,0.26,Wunderground v.1.15,2013-10-07 16:26:00,
2013-10-07 12:32:00,66.8,65.0,29.77,SE,139,3.0,3.0,94,2.18,,,0.55,Wunderground v.1.15,2013-10-07 16:32:00,
2013-10-07 12:37:00,66.5,65.0,29.77,NNW,334,3.0,5.0,95,0.92,,,0.66,Wunderground v.1.15,2013-10-07 16:37:00,
2013-10-07 12:43:00,66.3,64.8,29.77,SSE,155,2.0,3.0,95,0.31,,,0.70,Wunderground v.1.15,2013-10-07 16:43:00,
2013-10-07 12:48:00,66.2,64.7,29.79,East,79,3.0,4.0,95,0.14,,,0.71,Wunderground v.1.15,2013-10-07 16:48:00,
2013-10-07 12:54:00,66.0,64.5,29.78,SSW,204,3.0,5.0,95,0.11,,,0.72,Wunderground v.1.15,2013-10-07 16:54:00,
2013-10-07 12:59:00,65.9,64.4,29.76,SSW,200,3.0,5.0,95,0.08,,,0.73,Wunderground v.1.15,2013-10-07 16:59:00,
2013-10-07 13:05:00,65.9,64.4,29.76,South,183,2.0,3.0,95,0.09,,,0.74,Wunderground v.1.15,2013-10-07 17:05:00,
2013-10-07 13:11:00,66.0,64.8,29.75,SSE,159,1.0,1.0,96,0.08,,,0.74,Wunderground v.1.15,2013-10-07 17:11:00,
2013-10-07 13:17:00,66.1,64.9,29.75,SW,226,1.0,2.0,96,0.07,,,0.75,Wunderground v.1.15,2013-10-07 17:17:00,
2013-10-07 13:22:00,66.3,65.1,29.75,NE,39,1.0,1.0,96,0.06,,,0.75,Wunderground v.1.15,2013-10-07 17:22:00,
2013-10-07 13:27:00,66.2,65.0,29.76,East,83,2.0,4.0,96,0.04,,,0.75,Wunderground v.1.15,2013-10-07 17:27:00,
2013-10-07 13:33:00,66.2,65.0,29.76,SSE,159,2.0,2.0,96,0.04,,,0.76,Wunderground v.1.15,2013-10-07 17:33:00,
2013-10-07 13:39:00,66.1,64.9,29.77,SSE,155,2.0,7.0,96,0.04,,,0.76,Wunderground v.1.15,2013-10-07 17:39:00,
2013-10-07 13:46:00,66.1,64.9,29.77,SSE,159,2.0,2.0,96,0.14,,,0.78,Wunderground v.1.15,2013-10-07 17:46:00,
2013-10-07 13:51:00,66.0,64.5,29.76,South,174,2.0,3.0,95,0.11,,,0.79,Wunderground v.1.15,2013-10-07 17:51:00,
2013-10-07 13:56:00,65.8,64.6,29.78,ENE,72,2.0,3.0,96,0.12,,,0.80,Wunderground v.1.15,2013-10-07 17:56:00,
2013-10-07 14:02:00,65.7,64.2,29.76,WNW,288,2.0,2.0,95,0.10,,,0.81,Wunderground v.1.15,2013-10-07 18:02:00,
2013-10-07 14:07:00,65.0,63.2,29.78,West,277,2.0,5.0,94,0.21,,,0.83,Wunderground v.1.15,2013-10-07 18:07:00,
2013-10-07 14:13:00,63.4,61.0,29.78,North,11,3.0,5.0,92,0.15,,,0.84,Wunderground v.1.15,2013-10-07 18:13:00,
2013-10-07 14:19:00,62.7,60.6,29.77,North,358,3.0,5.0,93,0.19,,,0.86,Wunderground v.1.15,2013-10-07 18:19:00,
2013-10-07 14:25:00,62.4,60.9,29.79,NNE,22,2.0,3.0,95,0.21,,,0.88,Wunderground v.1.15,2013-10-07 18:25:00,
2013-10-07 14:30:00,62.4,60.9,29.82,WNW,301,1.0,3.0,95,0.22,,,0.90,Wunderground v.1.15,2013-10-07 18:30:00,
2013-10-07 14:36:00,62.0,60.3,29.83,East,96,2.0,3.0,94,0.44,,,0.93,Wunderground v.1.15,2013-10-07 18:36:00,
2013-10-07 14:41:00,61.5,59.8,29.81,West,266,3.0,3.0,94,0.35,,,0.97,Wunderground v.1.15,2013-10-07 18:41:00,
2013-10-07 14:47:00,61.2,59.8,29.83,WSW,249,3.0,3.0,95,0.30,,,0.99,Wunderground v.1.15,2013-10-07 18:47:00,
2013-10-07 14:52:00,61.1,59.7,29.83,West,279,2.0,2.0,95,0.21,,,1.01,Wunderground v.1.15,2013-10-07 18:52:00,
2013-10-07 14:57:00,60.8,59.4,29.83,SSW,201,2.0,2.0,95,0.25,,,1.03,Wunderground v.1.15,2013-10-07 18:57:00,
2013-10-07 15:03:00,60.5,59.1,29.81,West,274,1.0,2.0,95,0.15,,,1.05,Wunderground v.1.15,2013-10-07 19:03:00,
2013-10-07 15:08:00,60.5,59.1,29.83,WNW,285,1.0,2.0,95,0.12,,,1.06,Wunderground v.1.15,2013-10-07 19:08:00,
2013-10-07 15:14:00,60.4,59.3,29.83,North,3,1.0,2.0,96,0.10,,,1.06,Wunderground v.1.15,2013-10-07 19:14:00,
2013-10-07 15:19:00,60.4,59.3,29.84,NE,40,1.0,2.0,96,0.05,,,1.06,Wunderground v.1.15,2013-10-07 19:19:00,
2013-10-07 15:25:00,60.3,59.2,29.85,West,281,1.0,2.0,96,0.04,,,1.06,Wunderground v.1.15,2013-10-07 19:25:00,
2013-10-07 15:30:00,60.3,59.2,29.84,North,358,2.0,4.0,96,0.00,,,1.06,Wunderground v.1.15,2013-10-07 19:30:00,
2013-10-07 15:36:00,60.2,59.1,29.84,WNW,285,2.0,3.0,96,0.00,,,1.06,Wunderground v.1.15,2013-10-07 19:36:00,
2013-10-07 15:41:00,60.3,59.2,29.84,West,259,2.0,3.0,96,0.00,,,1.06,Wunderground v.1.15,2013-10-07 19:41:00,
2013-10-07 15:47:00,60.2,59.1,29.85,WNW,286,2.0,3.0,96,0.00,,,1.06,Wunderground v.1.15,2013-10-07 19:47:00,
2013-10-07 15:52:00,60.2,59.1,29.85,West,276,2.0,5.0,96,0.00,,,1.06,Wunderground v.1.15,2013-10-07 19:52:00,
2013-10-07 15:57:00,60.2,59.1,29.85,NNE,15,2.0,5.0,96,0.00,,,1.06,Wunderground v.1.15,2013-10-07 19:57:00,
2013-10-07 16:03:00,60.0,58.6,29.85,WNW,288,2.0,2.0,95,0.00,,,1.06,Wunderground v.1.15,2013-10-07 20:03:00,
2013-10-07 16:09:00,60.1,59.0,29.85,WNW,288,1.0,2.0,96,0.00,,,1.06,Wunderground v.1.15,2013-10-07 20:09:00,
2013-10-07 16:15:00,60.2,59.1,29.85,WSW,255,0.0,2.0,96,0.00,,,1.06,Wunderground v.1.15,2013-10-07 20:15:00,
2013-10-07 16:21:00,60.5,59.4,29.85,WSW,248,0.0,0.0,96,0.00,,,1.06,Wunderground v.1.15,2013-10-07 20:21:00,
2013-10-07 16:27:00,60.5,59.4,29.85,West,266,0.0,0.0,96,0.00,,,1.06,Wunderground v.1.15,2013-10-07 20:27:00,
2013-10-07 16:33:00,60.6,59.5,29.86,WNW,284,0.0,0.0,96,0.00,,,1.06,Wunderground v.1.15,2013-10-07 20:33:00,
2013-10-07 16:39:00,60.4,59.0,29.85,West,276,0.0,1.0,95,0.00,,,1.06,Wunderground v.1.15,2013-10-07 20:39:00,
2013-10-07 16:44:00,60.3,58.9,29.86,WNW,287,0.0,0.0,95,0.00,,,1.06,Wunderground v.1.15,2013-10-07 20:44:00,
2013-10-07 16:50:00,60.4,59.0,29.86,WSW,256,0.0,1.0,95,0.00,,,1.06,Wunderground v.1.15,2013-10-07 20:50:00,
2013-10-07 16:55:00,60.5,59.1,29.86,West,277,0.0,1.0,95,0.00,,,1.06,Wunderground v.1.15,2013-10-07 20:55:00,
2013-10-07 17:01:00,60.7,59.3,29.86,West,276,0.0,0.0,95,0.00,,,1.06,Wunderground v.1.15,2013-10-07 21:01:00,
2013-10-07 17:06:00,60.7,59.3,29.86,West,276,0.0,1.0,95,0.00,,,1.06,Wunderground v.1.15,2013-10-07 21:06:00,
2013-10-07 17:11:00,60.7,59.3,29.86,West,275,0.0,0.0,95,0.00,,,1.06,Wunderground v.1.15,2013-10-07 21:11:00,
2013-10-07 17:17:00,60.6,58.9,29.87,West,276,0.0,0.0,94,0.00,,,1.06,Wunderground v.1.15,2013-10-07 21:17:00,
2013-10-07 17:24:00,60.8,59.4,29.87,West,275,0.0,0.0,95,0.00,,,1.06,Wunderground v.1.15,2013-10-07 21:24:00,
2013-10-07 17:31:00,60.9,59.5,29.87,West,276,0.0,0.0,95,0.00,,,1.06,Wunderground v.1.15,2013-10-07 21:31:00,
2013-10-07 17:36:00,60.9,59.5,29.88,West,276,0.0,0.0,95,0.00,,,1.06,Wunderground v.1.15,2013-10-07 21:36:00,
2013-10-07 17:42:00,60.9,59.5,29.88,West,276,0.0,0.0,95,0.00,,,1.06,Wunderground v.1.15,2013-10-07 21:42:00,
2013-10-07 17:48:00,61.1,59.7,29.89,West,276,0.0,0.0,95,0.00,,,1.06,Wunderground v.1.15,2013-10-07 21:48:00,
2013-10-07 17:54:00,61.0,59.6,29.89,West,276,0.0,0.0,95,0.00,,,1.06,Wunderground v.1.15,2013-10-07 21:54:00,
2013-10-07 18:01:00,60.9,59.5,29.89,NW,321,0.0,0.0,95,0.00,,,1.06,Wunderground v.1.15,2013-10-07 22:01:00,
2013-10-07 18:06:00,60.8,59.1,29.89,WSW,257,0.0,0.0,94,0.00,,,1.06,Wunderground v.1.15,2013-10-07 22:06:00,
2013-10-07 18:11:00,60.7,59.3,29.89,WSW,257,0.0,0.0,95,0.00,,,1.06,Wunderground v.1.15,2013-10-07 22:11:00,
2013-10-07 18:17:00,60.6,59.2,29.89,WSW,257,0.0,0.0,95,0.00,,,1.06,Wunderground v.1.15,2013-10-07 22:17:00,
2013-10-07 18:23:00,60.5,59.1,29.89,WSW,257,0.0,0.0,95,0.00,,,1.06,Wunderground v.1.15,2013-10-07 22:23:00,
2013-10-07 18:29:00,60.4,59.0,29.90,WSW,257,0.0,0.0,95,0.00,,,1.06,Wunderground v.1.15,2013-10-07 22:29:00,
2013-10-07 18:35:00,60.3,59.2,29.90,WSW,257,0.0,0.0,96,0.00,,,1.06,Wunderground v.1.15,2013-10-07 22:35:00,
2013-10-07 18:40:00,60.3,59.2,29.90,WSW,257,0.0,0.0,96,0.00,,,1.06,Wunderground v.1.15,2013-10-07 22:40:00,
2013-10-07 18:45:00,60.2,59.1,29.90,WSW,243,0.0,0.0,96,0.00,,,1.06,Wunderground v.1.15,2013-10-07 22:45:00,
2013-10-07 18:51:00,60.2,59.1,29.91,WSW,243,0.0,1.0,96,0.00,,,1.06,Wunderground v.1.15,2013-10-07 22:51:00,
2013-10-07 18:56:00,60.0,58.9,29.91,West,264,0.0,1.0,96,0.00,,,1.06,Wunderground v.1.15,2013-10-07 22:56:00,
2013-10-07 19:02:00,59.8,58.4,29.92,West,264,0.0,1.0,95,0.00,,,1.06,Wunderground v.1.15,2013-10-07 23:02:00,
2013-10-07 19:07:00,59.6,58.2,29.92,West,277,1.0,2.0,95,0.00,,,1.06,Wunderground v.1.15,2013-10-07 23:07:00,
2013-10-07 19:13:00,59.4,58.0,29.92,WSW,257,1.0,2.0,95,0.00,,,1.06,Wunderground v.1.15,2013-10-07 23:13:00,
2013-10-07 19:19:00,59.2,57.2,29.92,ENE,57,1.0,2.0,93,0.00,,,1.06,Wunderground v.1.15,2013-10-07 23:19:00,
2013-10-07 19:24:00,59.1,56.5,29.92,West,276,1.0,3.0,91,0.00,,,1.06,Wunderground v.1.15,2013-10-07 23:24:00,
2013-10-07 19:31:00,59.0,56.1,29.93,West,269,1.0,2.0,90,0.00,,,1.06,Wunderground v.1.15,2013-10-07 23:31:00,
2013-10-07 19:36:00,58.8,55.3,29.93,WNW,290,1.0,2.0,88,0.00,,,1.06,Wunderground v.1.15,2013-10-07 23:36:00,
2013-10-07 19:41:00,58.7,54.8,29.93,WNW,287,2.0,2.0,87,0.00,,,1.06,Wunderground v.1.15,2013-10-07 23:41:00,
2013-10-07 19:47:00,58.6,54.7,29.94,West,259,2.0,2.0,87,0.00,,,1.06,Wunderground v.1.15,2013-10-07 23:47:00,
2013-10-07 19:53:00,58.4,54.9,29.94,West,279,1.0,1.0,88,0.00,,,1.06,Wunderground v.1.15,2013-10-07 23:53:00,
2013-10-07 19:59:00,58.1,54.2,29.94,West,276,1.0,1.0,87,0.00,,,1.06,Wunderground v.1.15,2013-10-07 23:59:00,
2013-10-07 20:04:00,58.0,54.5,29.94,West,270,1.0,1.0,88,0.00,,,1.06,Wunderground v.1.15,2013-10-08 00:04:00,
2013-10-07 20:10:00,57.8,54.6,29.95,West,270,0.0,1.0,89,0.00,,,1.06,Wunderground v.1.15,2013-10-08 00:10:00,
2013-10-07 20:15:00,57.4,53.9,29.95,West,270,0.0,1.0,88,0.00,,,1.06,Wunderground v.1.15,2013-10-08 00:15:00,
2013-10-07 20:21:00,57.2,53.7,29.96,SSW,201,0.0,0.0,88,0.00,,,1.06,Wunderground v.1.15,2013-10-08 00:21:00,
2013-10-07 20:27:00,56.9,53.4,29.95,West,270,0.0,2.0,88,0.00,,,1.06,Wunderground v.1.15,2013-10-08 00:27:00,
2013-10-07 20:33:00,56.9,52.4,29.96,West,274,1.0,3.0,85,0.00,,,1.06,Wunderground v.1.15,2013-10-08 00:33:00,
2013-10-07 20:39:00,57.1,52.3,29.97,West,279,2.0,4.0,84,0.00,,,1.06,Wunderground v.1.15,2013-10-08 00:39:00,
2013-10-07 20:46:00,56.8,52.3,29.97,West,266,2.0,4.0,85,0.00,,,1.06,Wunderground v.1.15,2013-10-08 00:46:00,
2013-10-07 20:51:00,56.7,52.2,29.97,WSW,256,2.0,2.0,85,0.00,,,1.06,Wunderground v.1.15,2013-10-08 00:51:00,
2013-10-07 20:56:00,56.7,51.9,29.97,WNW,283,2.0,3.0,84,0.00,,,1.06,Wunderground v.1.15,2013-10-08 00:56:00,
2013-10-07 21:02:00,56.7,51.9,29.97,West,281,2.0,2.0,84,0.00,,,1.06,Wunderground v.1.15,2013-10-08 01:02:00,
2013-10-07 21:07:00,56.6,51.8,29.97,West,276,1.0,2.0,84,0.00,,,1.06,Wunderground v.1.15,2013-10-08 01:07:00,
2013-10-07 21:13:00,56.5,51.4,29.98,WSW,252,1.0,3.0,83,0.00,,,1.06,Wunderground v.1.15,2013-10-08 01:13:00,
2013-10-07 21:18:00,56.5,51.4,29.98,West,281,2.0,3.0,83,0.00,,,1.06,Wunderground v.1.15,2013-10-08 01:18:00,
2013-10-07 21:23:00,56.5,51.4,29.97,WNW,287,2.0,3.0,83,0.00,,,1.06,Wunderground v.1.15,2013-10-08 01:23:00,
2013-10-07 21:29:00,56.4,51.3,29.97,WNW,288,3.0,4.0,83,0.00,,,1.06,Wunderground v.1.15,2013-10-08 01:29:00,
2013-10-07 21:35:00,56.3,50.9,29.98,WNW,285,3.0,3.0,82,0.00,,,1.06,Wunderground v.1.15,2013-10-08 01:35:00,
2013-10-07 21:40:00,56.4,50.6,29.98,West,277,2.0,3.0,81,0.00,,,1.06,Wunderground v.1.15,2013-10-08 01:40:00,
2013-10-07 21:45:00,56.5,50.7,29.98,WNW,288,2.0,4.0,81,0.00,,,1.06,Wunderground v.1.15,2013-10-08 01:45:00,
2013-10-07 21:51:00,56.4,50.6,29.98,WNW,283,2.0,3.0,81,0.00,,,1.06,Wunderground v.1.15,2013-10-08 01:51:00,
2013-10-07 21:56:00,56.2,50.1,29.98,WNW,291,2.0,3.0,80,0.00,,,1.06,Wunderground v.1.15,2013-10-08 01:56:00,
2013-10-07 22:02:00,56.3,49.5,29.98,West,281,3.0,4.0,78,0.00,,,1.06,Wunderground v.1.15,2013-10-08 02:02:00,
2013-10-07 22:07:00,56.3,49.5,29.98,WNW,282,3.0,4.0,78,0.00,,,1.06,Wunderground v.1.15,2013-10-08 02:07:00,
2013-10-07 22:13:00,56.4,48.9,29.99,West,274,2.0,3.0,76,0.00,,,1.06,Wunderground v.1.15,2013-10-08 02:13:00,
2013-10-07 22:19:00,56.5,48.7,29.99,WNW,296,3.0,7.0,75,0.00,,,1.06,Wunderground v.1.15,2013-10-08 02:19:00,
2013-10-07 22:25:00,56.6,48.0,29.99,WNW,288,3.0,3.0,73,0.00,,,1.06,Wunderground v.1.15,2013-10-08 02:25:00,
2013-10-07 22:31:00,56.6,48.0,29.99,West,277,2.0,2.0,73,0.00,,,1.06,Wunderground v.1.15,2013-10-08 02:31:00,
2013-10-07 22:36:00,56.4,47.9,29.99,WNW,295,2.0,2.0,73,0.00,,,1.06,Wunderground v.1.15,2013-10-08 02:36:00,
2013-10-07 22:41:00,56.3,47.8,29.99,West,276,2.0,3.0,73,0.00,,,1.06,Wunderground v.1.15,2013-10-08 02:41:00,
2013-10-07 22:47:00,56.3,47.4,29.99,WNW,285,3.0,5.0,72,0.00,,,1.06,Wunderground v.1.15,2013-10-08 02:47:00,
2013-10-07 22:53:00,56.3,47.8,29.99,West,276,3.0,3.0,73,0.00,,,1.06,Wunderground v.1.15,2013-10-08 02:53:00,
2013-10-07 22:58:00,56.1,47.6,29.99,ENE,70,3.0,3.0,73,0.00,,,1.06,Wunderground v.1.15,2013-10-08 02:58:00,
2013-10-07 23:04:00,56.0,47.5,30.00,West,278,3.0,4.0,73,0.00,,,1.06,Wunderground v.1.15,2013-10-08 03:04:00,
2013-10-07 23:10:00,55.7,47.2,30.00,WSW,248,3.0,5.0,73,0.00,,,1.06,Wunderground v.1.15,2013-10-08 03:10:00,
2013-10-07 23:15:00,55.7,47.2,30.00,West,273,4.0,5.0,73,0.00,,,1.06,Wunderground v.1.15,2013-10-08 03:15:00,
2013-10-07 23:21:00,55.7,46.8,30.00,West,280,4.0,4.0,72,0.00,,,1.06,Wunderground v.1.15,2013-10-08 03:21:00,
2013-10-07 23:26:00,55.6,46.7,30.00,WSW,257,3.0,6.0,72,0.00,,,1.06,Wunderground v.1.15,2013-10-08 03:26:00,
2013-10-07 23:32:00,55.5,46.6,30.00,West,264,3.0,3.0,72,0.00,,,1.06,Wunderground v.1.15,2013-10-08 03:32:00,
2013-10-07 23:37:00,55.4,46.5,30.00,WNW,291,3.0,4.0,72,0.00,,,1.06,Wunderground v.1.15,2013-10-08 03:37:00,
2013-10-07 23:42:00,55.2,46.3,30.00,WNW,293,2.0,2.0,72,0.00,,,1.06,Wunderground v.1.15,2013-10-08 03:42:00,
2013-10-07 23:48:00,55.0,46.5,30.01,WNW,284,2.0,3.0,73,0.00,,,1.06,Wunderground v.1.15,2013-10-08 03:48:00,
2013-10-07 23:54:00,54.8,46.3,30.01,NW,314,2.0,3.0,73,0.00,,,1.06,Wunderground v.1.15,2013-10-08 03:54:00,
2013-10-07 23:59:00,54.7,46.2,30.02,West,269,2.0,3.0,73,0.00,,,1.06,Wunderground v.1.15,2013-10-08 03:59:00,